THOR ABLESTAR DEB, 154

Orbit data source: Space-Track

THOR ABLESTAR DEB, 154 is space debris in LEO originally from a launch on Thu, 29 Jun 1961 UTC launched from the Air Force Eastern Test Range (AFETR). Debris objects in space refer to the collection of defunct objects orbiting the Earth. Examples of debris include non-operational satellites, rocket bodies, and fragments generated from explosions, collisions, or faulty payload assembly.

Loading next visibility...
THOR ABLESTAR DEB details
Identifier
154, 1961-015AQ
Orbit
LEO
Last TLE update1 day ago
Origin
Flag of USUSAF SSD (US)
ManufacturerUnknown
MissionSpacecraft
Bus & MotorUnknown
MassUnknown
Launch date (UTC)
1961-06-29 (64 years ago)
Launch vehicleUnknown
Launch site
Air Force Eastern Test Range (AFETR)
Object type
Payload
Rocket body
Debris
Shape & HBRUnknown
Radar Cross SectionMedium (>0.1 m² and <1 m²)

Expand to show TLE details & history

TLE from 1 day ago
0 THOR ABLESTAR DEB
1 00154U 61015AQ  25022.34405327  .00001038  00000-0  66287-3 0  9996
2 00154  66.6593   0.2292 0082975   0.7847 359.3353 14.05850853244818
Epoch: 2025-01-22T08:15Z
Definitive object data (Epoch: 2025-01-22T08:15:26.202Z)
Latitude-0.00003°
Longitude114.43273°
Altitude815.511 km
Speed7.477 km/s
True Right ascension00h 00m 55s
True Declination0° 00' 00"
Sunlit
Object was in daylight at TLE epoch
Visualization TLE readout
Latitude13.69491°
Longitude116.84765°
Altitude816.819 km
Speed7.476 km/s
Apparent Right ascension02h 56m 43s
Apparent Declination-19° 13' 42"
Sunlit
Object is in daylight
Visualization observer readout
Local Sidereal Time19:41:20
Azimuth93.643° ESE
Elevation-26.439°
Doppler factor1
Orbital elements
Apogee altitude932.161 km
Perigee altitude811.845 km
Semi-major axis7,250.14 km
Eccentricity0.0082975
Inclination66.6593°
RAAN0.2292°
Arg. of periapsis0.7847°
True anomaly359.32415°
Mean anomaly359.3353°
Eccentric anomaly359.32974°
Mean motion3.5158 °/min
BSTAR0.00066287
Orbital period102.4 mins
Loading maneuver chart data...

THOR ABLESTAR DEB Visibility forecast

Observer location: undefined°, undefined

Span
Click to sort rows by Start time (UTC) header in descending order
Start Az.
Max El. time (UTC)
Max El. Az.
Max El.
End time (UTC)
End Az.
10 mins2025-01-23 23:38:26.852Z200.11° SSW2025-01-23 23:43:26.852Z143.949° SSE43.58°2025-01-23 23:48:26.852Z33.697° NE
6 mins2025-01-24 01:27:26.852Z287.695° WNW2025-01-24 01:29:26.852Z313.749° NW18.327°2025-01-24 01:33:26.852Z0.106° NNE
4 mins2025-01-24 06:53:26.852Z18.864° NNE2025-01-24 06:55:26.852Z40.316° NE13.437°2025-01-24 06:57:26.852Z61.159° ENE
10 mins2025-01-24 08:37:26.852Z339.715° N2025-01-24 08:41:26.852Z43.445° NE42.329°2025-01-24 08:47:26.852Z140.606° SSE
7 mins2025-01-24 10:23:26.852Z289.244° WNW2025-01-24 10:26:26.852Z254.829° W18.365°2025-01-24 10:30:26.852Z212.574° SW
|